BEIDOU G6

Last updated on April 2, 2019, 3:15 a.m. UTC

1 38953U 12059A   19091.54146771 -.00000188  00000-0  00000+0 0  9997
2 38953   1.7061  83.1105 0005915 230.4223 155.0431  1.00272682 23641
UTC
Height (km)
Latitude
Longitude
Inclination
Orbital Period
UTC large
Height (km)
Speed (km/s)
/
Latitude / Longitude
Inclination (degrees)
Orbital Period (minutes)
Azimuth
Elevation
Range (km)
Doppler Factor
iOS Compass Heading
iOS Angle

Next 30 passes for location: Hong Kong

Rise time Rise Azimuth (degrees) Set time Set Azimuth (degrees) Duration Max altitude (degrees)

No matching passes for this satellites